[[{"header":{"parameterUnit":"m.s-1","parameterCategory":1,"la1":30.2992,"la2":30.254,"lo1":-89.0895,"lo2":-89.0443,"dy":0.0025,"dx":0.0025,"nx":19,"ny":19,"refTime":"2026-05-15T21:00:00:Z","depth":0,"parameterNumber":2,"parameterNumberName":"U-component_of_WINDS"},"data":[0,0,0,-1.8138,-1.8139,-1.8213,-1.8213,-1.8299,-1.83,0,0,0,0,0,0,0,0,0,0,0,-1.8109,-1.811,-1.8138,-1.8139,-1.8213,-1.8213,-1.8299,-1.83,0,0,0,0,0,0,0,0,0,0,0,-1.8109,-1.811,-1.811,-1.814,-1.8213,-1.8213,-1.8299,-1.8247,0,0,0,0,0,0,0,0,0,0,-1.8176,-1.8144,-1.811,-1.811,-1.814,-1.8213,-1.8214,-1.8244,-1.825,-1.8262,0,-1.8269,0,-1.8286,-1.8305,-1.8305,0,0,0,-1.8144,-1.8139,-1.8165,-1.811,-1.8141,-1.8213,-1.8181,-1.8247,-1.8254,-1.8269,-1.8271,-1.8274,-1.8287,-1.8305,-1.8306,-1.8355,-1.8355,0,0,-1.814,-1.8119,-1.816,-1.8168,-1.8155,-1.8179,-1.8183,-1.8251,-1.8252,-1.8271,-1.8276,-1.8289,-1.8306,-1.8306,-1.8355,-1.8355,0,0,0,-1.8125,-1.8116,-1.8141,-1.8165,-1.8178,-1.8181,-1.8186,-1.8249,-1.8259,-1.8277,-1.829,-1.8306,-1.8307,-1.8355,-1.8355,-1.8334,0,0,0,-1.8123,-1.8108,-1.8139,-1.8127,-1.8177,-1.8215,-1.8182,-1.8254,-1.8262,-1.8289,-1.8306,-1.8308,-1.8355,-1.8355,-1.8335,-1.8328,0,0,0,-1.8107,-1.8106,-1.8114,-1.8125,-1.8156,-1.8214,-1.8228,-1.8256,-1.827,-1.8305,-1.8308,-1.8355,-1.8355,-1.8335,-1.8329,-1.8335,0,0,0,-1.8084,-1.8095,-1.8113,-1.8131,-1.8155,-1.82,-1.8227,-1.8262,-1.829,-1.8307,-1.8355,-1.8355,-1.8336,-1.8329,-1.8335,-1.8336,-1.8334,0,0,-1.8086,-1.8094,-1.8106,-1.8125,-1.8161,-1.8191,-1.8224,-1.827,-1.8293,-1.8333,-1.8335,-1.8335,-1.8329,-1.8335,-1.8332,-1.8331,0,0,0,-1.8099,-1.8107,-1.8122,-1.8147,-1.8182,-1.8211,-1.8254,-1.8271,-1.8307,-1.8309,-1.8339,-1.8337,-1.8341,-1.8342,-1.8341,-1.8346,-1.8355,-1.8355,-1.8355,-1.8072,-1.81,-1.8122,-1.8159,-1.8184,-1.8228,-1.8251,-1.8282,-1.8304,-1.8311,-1.8323,-1.8318,-1.8318,-1.8317,-1.8323,-1.8326,-1.8326,-1.8326,-1.8326,-1.8077,-1.8093,-1.8122,-1.8154,-1.8184,-1.8212,-1.8255,-1.827,-1.8301,-1.8311,-1.8316,-1.8324,-1.8315,-1.8321,-1.8324,-1.8325,-1.8325,-1.8325,-1.8325,-1.8062,-1.8074,-1.8095,-1.8135,-1.8163,-1.8202,-1.823,-1.8257,-1.8283,-1.8289,-1.8305,-1.8305,-1.8309,-1.8294,-1.8294,-1.8294,-1.8294,-1.8294,-1.8294,-1.8037,-1.8061,-1.8081,-1.812,-1.814,-1.817,-1.8216,-1.8238,-1.8268,-1.8286,-1.8286,-1.8308,-1.8308,-1.8308,-1.8294,-1.8294,-1.8294,-1.8294,-1.8294,-1.8031,-1.8037,-1.8067,-1.8088,-1.8136,-1.8163,-1.8198,-1.8239,-1.8261,-1.8274,-1.8295,-1.8291,-1.8301,-1.8303,-1.8302,-1.8288,-1.8288,-1.8288,-1.8288,-1.8018,-1.8027,-1.8064,-1.8095,-1.8128,-1.8163,-1.8198,-1.8234,-1.8273,-1.8289,-1.8295,-1.8297,-1.8297,-1.8308,-1.8309,-1.8309,-1.8297,-1.8297,-1.8297,-1.8016,-1.8029,-1.8052,-1.809,-1.813,-1.8164,-1.8198,-1.8234,-1.8279,-1.8298,-1.8302,-1.8301,-1.8305,-1.8305,-1.8323,-1.8324,-1.8325,0,0]},{"header":{"parameterUnit":"m.s-1","parameterCategory":1,"la1":30.2992,"la2":30.254,"lo1":-89.0895,"lo2":-89.0443,"dy":0.0025,"dx":0.0025,"nx":19,"ny":19,"refTime":"2026-05-15T21:00:00:Z","depth":0,"parameterNumber":3,"parameterNumberName":"V-component_of_WINDS"},"data":[0,0,0,4.8591,4.8591,4.8568,4.8568,4.8552,4.8552,0,0,0,0,0,0,0,0,0,0,0,4.8607,4.8607,4.8591,4.8591,4.8568,4.8568,4.8552,4.8552,0,0,0,0,0,0,0,0,0,0,0,4.8607,4.8607,4.8607,4.8591,4.8568,4.8568,4.8552,4.8565,0,0,0,0,0,0,0,0,0,0,4.8584,4.8608,4.8607,4.8607,4.8591,4.8568,4.8568,4.8565,4.8564,4.8569,0,4.8576,0,4.8564,4.8552,4.8552,0,0,0,4.8584,4.8609,4.8595,4.8607,4.8591,4.8568,4.8576,4.8564,4.8563,4.8567,4.8576,4.8575,4.8564,4.8552,4.8552,4.8606,4.8607,0,0,4.8585,4.8607,4.8595,4.8594,4.8599,4.8577,4.8576,4.8563,4.8574,4.8576,4.8574,4.8564,4.8552,4.8552,4.8605,4.8606,0,0,0,4.8593,4.8609,4.8594,4.8595,4.859,4.8577,4.8575,4.8574,4.8568,4.8574,4.8564,4.8552,4.8552,4.8605,4.8606,4.8656,0,0,0,4.8594,4.8613,4.8595,4.8609,4.8591,4.8582,4.8587,4.8568,4.8566,4.8564,4.8552,4.8552,4.8604,4.8605,4.8653,4.8676,0,0,0,4.8605,4.8614,4.8614,4.861,4.8601,4.8582,4.8574,4.8567,4.856,4.8552,4.8552,4.8604,4.8605,4.8651,4.8672,4.8697,0,0,0,4.8624,4.8659,4.8616,4.8651,4.8601,4.8613,4.8574,4.8582,4.8581,4.8552,4.8604,4.8606,4.865,4.8669,4.8694,4.8722,4.8735,0,0,4.868,4.8667,4.8686,4.8646,4.8672,4.8615,4.8647,4.8625,4.8604,4.8606,4.8607,4.8654,4.8671,4.8696,4.8804,4.8815,0,0,0,4.8711,4.8725,4.8727,4.8728,4.8712,4.8701,4.8671,4.8663,4.8664,4.861,4.8669,4.8679,4.8692,4.8704,4.8714,4.8724,4.8612,4.8612,4.8612,4.8823,4.8795,4.8824,4.8793,4.8794,4.8764,4.8762,4.8746,4.8716,4.873,4.8731,4.88,4.8815,4.8822,4.8833,4.8743,4.8743,4.8743,4.8744,4.8904,4.8919,4.888,4.8894,4.8864,4.8875,4.8848,4.8826,4.8832,4.8797,4.8807,4.8771,4.8835,4.8843,4.8747,4.8746,4.8746,4.8746,4.8745,4.8974,4.8976,4.8966,4.8965,4.8966,4.8933,4.8941,4.8913,4.8886,4.8897,4.8894,4.8893,4.8889,4.8898,4.8898,4.8898,4.8898,4.8898,4.8898,4.9051,4.9038,4.9048,4.9036,4.9032,4.9025,4.8995,4.8991,4.8979,4.8957,4.8957,4.8926,4.8846,4.8827,4.8902,4.8901,4.8901,4.8901,4.89,4.9143,4.9118,4.9134,4.9131,4.9114,4.9118,4.9082,4.9076,4.9068,4.9073,4.904,4.8986,4.8969,4.8961,4.8945,4.9046,4.9046,4.9046,4.9046,4.9202,4.9191,4.9202,4.9199,4.9193,4.9162,4.9182,4.9159,4.9131,4.9125,4.9106,4.9082,4.9076,4.9063,4.9053,4.9037,4.9159,4.9159,4.916,4.9257,4.9245,4.9267,4.924,4.9225,4.9212,4.9229,4.9227,4.919,4.9164,4.9119,4.9114,4.9075,4.9064,4.9036,4.9022,4.8992,0,0]}]]